[[{"header":{"parameterUnit":"m.s-1","parameterCategory":2,"la1":30.2991,"la2":30.254,"lo1":-89.0895,"lo2":-89.0444,"dy":0.0017,"dx":0.0017,"nx":28,"ny":28,"refTime":"2025-04-15T03:00:00:Z","depth":"0","parameterNumber":2,"parameterNumberName":"U-component_of_CURRENTS"},"data":[0,0,0,0,0,0,0,0,0,0,0,0,0,0,0,0,0,0,0,0,0,0,0,0,0,0,0,0,0,0,0,0,0,0,0,0,0,0,0,0,0,0,0,0,0,0,0,0,0,0,0,0,0,0,0,0,0,0,-0.2774,-0.2774,0,-0.2806,-0.2806,-0.2806,-0.2807,-0.2807,-0.2807,-0.2806,-0.2829,-0.2829,-0.283,0,0,0,0,0,0,0,0,0,0,0,0,0,-0.2692,-0.2694,-0.2774,-0.2774,-0.2775,-0.2806,-0.2806,-0.2806,-0.2807,-0.2807,-0.2807,-0.2806,-0.2828,-0.2829,-0.283,0,0,0,0,0,0,0,0,0,0,0,0,0,-0.2724,-0.2694,-0.2773,-0.2781,-0.2782,-0.2806,-0.2806,-0.2806,-0.2807,-0.2807,-0.2807,-0.2806,-0.2828,-0.2829,-0.283,-0.2843,0,0,-0.2834,-0.2834,0,0,0,0,0,0,0,0,-0.2722,-0.2727,-0.2779,-0.278,-0.2782,-0.2804,-0.2786,-0.2819,-0.2807,-0.2795,-0.2806,-0.2806,-0.2821,-0.2823,-0.2827,-0.2844,-0.2845,-0.2834,-0.2835,-0.2835,-0.2836,0,0,0,0,0,0,0,-0.272,-0.2725,-0.2784,-0.278,-0.2781,-0.2776,-0.278,-0.2792,-0.2807,-0.2796,-0.2797,-0.2804,-0.2822,-0.2825,-0.2827,-0.2845,-0.2834,-0.2835,-0.2836,-0.2836,-0.2815,-0.2814,0,0,0,0,0,0,-0.2723,-0.2724,-0.2783,-0.2785,-0.2753,-0.2778,-0.2782,-0.2795,-0.2807,-0.281,-0.2804,-0.2804,-0.2824,-0.2826,-0.2828,-0.2821,-0.2835,-0.2836,-0.2837,-0.2817,-0.2815,-0.2814,0,0,0,0,0,0,-0.2721,-0.2728,-0.2782,-0.2756,-0.2763,-0.278,-0.2794,-0.2796,-0.28,-0.2814,-0.2816,-0.2807,-0.2823,-0.2826,-0.2825,-0.2823,-0.2837,-0.2838,-0.2818,-0.2816,-0.2814,-0.2822,0,0,0,0,0,0,-0.2719,-0.2727,-0.2733,-0.2757,-0.2765,-0.2793,-0.2795,-0.2797,-0.2807,-0.2806,-0.2817,-0.2819,-0.2823,-0.2823,-0.2826,-0.2825,-0.2839,-0.282,-0.2817,-0.2815,-0.2823,-0.282,-0.2818,0,0,0,0,0,-0.2716,-0.2727,-0.2733,-0.274,-0.2774,-0.2794,-0.2796,-0.2805,-0.2807,-0.2808,-0.2806,-0.2818,-0.2809,-0.2823,-0.2827,-0.2826,-0.2821,-0.2818,-0.2815,-0.2824,-0.2821,-0.2818,0,0,0,0,0,0,-0.2698,-0.2729,-0.2736,-0.2757,-0.2773,-0.2794,-0.2797,-0.2806,-0.2807,-0.2804,-0.2813,-0.2815,-0.2807,-0.2811,-0.2825,-0.2807,-0.2813,-0.2811,-0.2819,-0.2816,-0.2813,-0.2825,-0.284,0,0,0,0,0,-0.2698,-0.2708,-0.2739,-0.2752,-0.2761,-0.2779,-0.2787,-0.2795,-0.2803,-0.2804,-0.2808,-0.2805,-0.2799,-0.2803,-0.2797,-0.2801,-0.2791,-0.2796,-0.2793,-0.2791,-0.2799,-0.2779,-0.2776,-0.2805,-0.2805,-0.2805,0,0,-0.2693,-0.2712,-0.2718,-0.2747,-0.2759,-0.2775,-0.2782,-0.2795,-0.2804,-0.2807,-0.2808,-0.2799,-0.2795,-0.2788,-0.2785,-0.2794,-0.2772,-0.2788,-0.2787,-0.2796,-0.2776,-0.2773,-0.2771,-0.2803,-0.2803,-0.2803,0,0,-0.269,-0.2708,-0.2715,-0.2731,-0.2753,-0.2768,-0.2773,-0.2793,-0.2795,-0.2798,-0.2792,-0.2778,-0.2782,-0.2774,-0.2772,-0.2752,-0.2755,-0.2747,-0.2756,-0.2736,-0.2735,-0.2733,-0.2699,-0.2694,-0.2752,-0.2752,-0.2752,0,-0.2682,-0.2702,-0.2719,-0.2733,-0.2749,-0.2765,-0.2781,-0.2788,-0.2801,-0.2802,-0.2796,-0.2778,-0.2773,-0.2767,-0.2756,-0.275,-0.2736,-0.2775,-0.2736,-0.2734,-0.2732,-0.2698,-0.2693,-0.2752,-0.2752,-0.2752,-0.2752,0,-0.2684,-0.2703,-0.2709,-0.2733,-0.2751,-0.2765,-0.2788,-0.2793,-0.2797,-0.28,-0.2788,-0.2773,-0.2765,-0.2754,-0.2754,-0.2739,-0.273,-0.2733,-0.2751,-0.2731,-0.2694,-0.2689,-0.2752,-0.2752,-0.2752,-0.2752,0,0,-0.2654,-0.2702,-0.2701,-0.2718,-0.2754,-0.2768,-0.2786,-0.2804,-0.2809,-0.2803,-0.2804,-0.2781,-0.2772,-0.2767,-0.2758,-0.2743,-0.2709,-0.2739,-0.2738,-0.2718,-0.2655,-0.2526,-0.2508,-0.2712,-0.2711,-0.2711,-0.2629,0,-0.2647,-0.2675,-0.2703,-0.2728,-0.2747,-0.2777,-0.2792,-0.2808,-0.2813,-0.2814,-0.2798,-0.2786,-0.2779,-0.277,-0.2756,-0.2725,-0.2698,-0.273,-0.2667,-0.2664,-0.2564,-0.2498,-0.2398,-0.2306,-0.2624,-0.2623,-0.2622,0,-0.2628,-0.2656,-0.2683,-0.2731,-0.2741,-0.2757,-0.2786,-0.2802,-0.2812,-0.2815,-0.2811,-0.2801,-0.2782,-0.2772,-0.2717,-0.2741,-0.2698,-0.2668,-0.2665,-0.2542,-0.2525,-0.2379,-0.2284,-0.2259,-0.2614,-0.2614,-0.2615,0,-0.2583,-0.2635,-0.2656,-0.2673,-0.273,-0.2743,-0.2768,-0.2791,-0.2798,-0.2812,-0.2812,-0.2798,-0.2781,-0.2742,-0.268,-0.2702,-0.2606,-0.2627,-0.2466,-0.2456,-0.2355,-0.2337,-0.2239,-0.2573,-0.2573,-0.2573,-0.2573,0,-0.2556,-0.2568,-0.2636,-0.2645,-0.266,-0.2716,-0.2723,-0.2748,-0.2776,-0.2777,-0.2804,-0.2792,-0.2774,-0.2723,-0.2674,-0.2534,-0.2595,-0.2445,-0.2418,-0.2349,-0.2332,-0.2293,-0.2328,-0.257,-0.2571,-0.2571,-0.2572,0,-0.2484,-0.2534,-0.2554,-0.2619,-0.2635,-0.2639,-0.2686,-0.2689,-0.2737,-0.2742,-0.2746,-0.2773,-0.2693,-0.2641,-0.2561,-0.2499,-0.2336,-0.2332,-0.2239,-0.22,-0.2009,-0.2047,-0.1929,-0.1874,-0.2137,-0.2133,-0.213,0,-0.2443,-0.245,-0.251,-0.2513,-0.2536,-0.256,-0.257,-0.2642,-0.2657,-0.2717,-0.2712,-0.2666,-0.2586,-0.2414,-0.2292,-0.2138,-0.2169,-0.1979,-0.1989,-0.1954,-0.198,-0.2025,-0.1993,-0.1862,-0.1857,-0.1853,-0.1849,0,-0.2354,-0.2375,-0.2392,-0.2409,-0.2423,-0.2439,-0.2474,-0.2491,-0.2578,-0.2586,-0.2578,-0.2519,-0.2359,-0.2146,-0.1957,-0.1873,-0.192,-0.1883,-0.1882,-0.1766,-0.1777,-0.1725,-0.1967,-0.1812,-0.1816,-0.1818,-0.182,-0.1822,-0.2263,-0.225,-0.2275,-0.2274,-0.2295,-0.2303,-0.2288,-0.2343,-0.2348,-0.2346,-0.2377,-0.224,-0.207,-0.1765,-0.1673,-0.1495,-0.1598,-0.1461,-0.1514,-0.1565,-0.1492,-0.1625,-0.1416,-0.1417,-0.1418,-0.142,-0.142,0,-0.2133,-0.2135,-0.2136,-0.2137,-0.2109,-0.2168,-0.2201,-0.2169,-0.2143,-0.2126,-0.2058,-0.184,-0.1602,-0.1473,-0.127,-0.1177,-0.1186,-0.1163,-0.124,-0.1227,-0.1359,-0.1324,-0.1042,-0.1042,-0.1042,-0.1042,-0.1042,-0.1042,-0.2064,-0.2015,-0.2021,-0.1939,-0.1943,-0.1885,-0.1884,-0.1856,-0.1823,-0.1667,-0.155,-0.1471,-0.1348,-0.129,-0.1118,-0.105,-0.1059,-0.1005,-0.1053,-0.1195,-0.1229,-0.1262,-0.1236,-0.0939,-0.0939,-0.0877,-0.0877,-0.0877]},{"header":{"parameterUnit":"m.s-1","parameterCategory":2,"la1":30.2991,"la2":30.254,"lo1":-89.0895,"lo2":-89.0444,"dy":0.0017,"dx":0.0017,"nx":28,"ny":28,"refTime":"2025-04-15T03:00:00:Z","depth":"0","parameterNumber":3,"parameterNumberName":"V-component_of_CURRENTS"},"data":[0,0,0,0,0,0,0,0,0,0,0,0,0,0,0,0,0,0,0,0,0,0,0,0,0,0,0,0,0,0,0,0,0,0,0,0,0,0,0,0,0,0,0,0,0,0,0,0,0,0,0,0,0,0,0,0,0,0,-0.0453,-0.0453,0,-0.0383,-0.0382,-0.0381,-0.0329,-0.0329,-0.0328,-0.0328,-0.0196,-0.0193,-0.019,0,0,0,0,0,0,0,0,0,0,0,0,0,-0.0488,-0.0488,-0.0453,-0.0452,-0.0452,-0.0383,-0.0382,-0.0381,-0.0329,-0.0329,-0.0328,-0.0328,-0.0197,-0.0193,-0.0189,0,0,0,0,0,0,0,0,0,0,0,0,0,-0.045,-0.0488,-0.0453,-0.0419,-0.0415,-0.0383,-0.0382,-0.038,-0.0329,-0.0329,-0.0328,-0.0328,-0.0198,-0.0194,-0.0189,-0.0169,0,0,-0.0174,-0.0172,0,0,0,0,0,0,0,0,-0.0452,-0.0448,-0.0424,-0.0421,-0.0417,-0.0365,-0.0346,-0.0307,-0.0329,-0.036,-0.0328,-0.0327,-0.0248,-0.0239,-0.0226,-0.0163,-0.0157,-0.0174,-0.0171,-0.0169,-0.0167,0,0,0,0,0,0,0,-0.0455,-0.0451,-0.0424,-0.0424,-0.0419,-0.0388,-0.0382,-0.0338,-0.0306,-0.0358,-0.0354,-0.0348,-0.0245,-0.0231,-0.0222,-0.0155,-0.0174,-0.017,-0.0167,-0.0165,-0.0073,-0.0073,0,0,0,0,0,0,-0.047,-0.0454,-0.0426,-0.0422,-0.0435,-0.0388,-0.0381,-0.0381,-0.0307,-0.0297,-0.0349,-0.0346,-0.0239,-0.0228,-0.0218,-0.0207,-0.0169,-0.0164,-0.0162,-0.0072,-0.0073,-0.0073,0,0,0,0,0,0,-0.0471,-0.0468,-0.0429,-0.0437,-0.043,-0.0388,-0.0388,-0.038,-0.0366,-0.0302,-0.0289,-0.0344,-0.0239,-0.0224,-0.0188,-0.0201,-0.0162,-0.0158,-0.0072,-0.0072,-0.0073,-0.0175,0,0,0,0,0,0,-0.0472,-0.0469,-0.0474,-0.0438,-0.043,-0.0419,-0.0388,-0.0379,-0.0364,-0.036,-0.0293,-0.028,-0.0237,-0.0195,-0.0183,-0.0193,-0.0154,-0.0071,-0.0072,-0.0073,-0.0171,-0.0179,-0.0186,0,0,0,0,0,-0.0474,-0.0486,-0.0474,-0.0471,-0.0438,-0.042,-0.0413,-0.038,-0.0365,-0.0365,-0.0322,-0.0282,-0.0191,-0.0192,-0.0177,-0.0187,-0.0071,-0.0072,-0.0073,-0.0168,-0.0177,-0.0185,0,0,0,0,0,0,-0.0501,-0.0481,-0.0468,-0.0472,-0.0452,-0.0412,-0.0409,-0.0387,-0.0353,-0.0348,-0.0286,-0.0271,-0.0244,-0.02,-0.0202,-0.0162,-0.0125,-0.0123,-0.0202,-0.021,-0.0218,-0.0235,-0.015,0,0,0,0,0,-0.0511,-0.0516,-0.0488,-0.0491,-0.0485,-0.0448,-0.0436,-0.0416,-0.0382,-0.0367,-0.0322,-0.0273,-0.0237,-0.0213,-0.0171,-0.0147,-0.009,-0.0143,-0.0151,-0.0157,-0.0161,-0.0104,-0.0107,-0.0076,-0.0076,-0.0076,0,0,-0.0521,-0.0511,-0.0513,-0.0497,-0.0478,-0.0484,-0.0439,-0.0429,-0.0432,-0.0357,-0.0344,-0.0296,-0.0236,-0.0214,-0.0198,-0.0179,-0.0131,-0.0159,-0.0165,-0.0164,-0.0105,-0.0108,-0.0111,-0.0077,-0.0077,-0.0077,0,0,-0.0556,-0.0537,-0.0559,-0.0549,-0.0531,-0.0509,-0.0511,-0.0477,-0.0459,-0.0439,-0.0391,-0.0354,-0.0293,-0.0258,-0.0232,-0.0252,-0.0174,-0.0237,-0.0286,-0.0232,-0.0234,-0.0235,-0.015,-0.0143,-0.024,-0.024,-0.024,0,-0.0571,-0.0594,-0.056,-0.058,-0.0581,-0.0528,-0.0553,-0.0528,-0.0487,-0.0471,-0.0448,-0.0363,-0.0316,-0.0288,-0.03,-0.027,-0.0214,-0.0261,-0.0242,-0.0242,-0.0242,-0.0154,-0.0145,-0.0245,-0.0244,-0.0244,-0.0243,0,-0.0626,-0.0642,-0.0652,-0.0664,-0.0658,-0.0667,-0.0635,-0.062,-0.0588,-0.0554,-0.0515,-0.045,-0.0398,-0.0381,-0.0348,-0.0326,-0.0277,-0.0261,-0.0225,-0.0251,-0.0157,-0.0145,-0.0252,-0.025,-0.0249,-0.0247,0,0,-0.0665,-0.069,-0.0694,-0.0715,-0.0704,-0.0705,-0.0708,-0.069,-0.0676,-0.063,-0.0606,-0.0556,-0.0506,-0.0473,-0.0421,-0.0378,-0.0326,-0.0328,-0.0322,-0.0251,-0.0179,-0.0103,-0.0082,-0.0309,-0.0308,-0.0307,-0.0108,0,-0.072,-0.0785,-0.0776,-0.0824,-0.0853,-0.0811,-0.0811,-0.0782,-0.0735,-0.0692,-0.0621,-0.0574,-0.0544,-0.0511,-0.0471,-0.0352,-0.0303,-0.0379,-0.0156,-0.0148,-0.0086,-0.007,-0.0053,0.0129,-0.0096,-0.0094,-0.0093,0,-0.0783,-0.0817,-0.0885,-0.0905,-0.091,-0.0924,-0.0903,-0.0895,-0.082,-0.0776,-0.0721,-0.0646,-0.0571,-0.0542,-0.0374,-0.0421,-0.0319,-0.023,-0.022,-0.0108,-0.0053,0.0118,0.0159,0.0261,-0.0074,-0.0076,-0.0077,0,-0.084,-0.089,-0.0949,-0.096,-0.0972,-0.0982,-0.0976,-0.0922,-0.0897,-0.0822,-0.0772,-0.0682,-0.0594,-0.0488,-0.0301,-0.0337,-0.0088,-0.011,0.0056,0.0065,0.0146,0.0159,0.0304,-0.0004,-0.0004,-0.0005,-0.0006,0,-0.0909,-0.0951,-0.0979,-0.1011,-0.1051,-0.1038,-0.1044,-0.1016,-0.095,-0.0897,-0.0819,-0.0725,-0.0576,-0.041,-0.0289,-0.0052,-0.0072,0.0062,0.0118,0.0114,0.0121,0.0268,0.0299,0.0003,0.0001,-0.0001,-0.0002,0,-0.0966,-0.099,-0.105,-0.1078,-0.1085,-0.1111,-0.1091,-0.1078,-0.1012,-0.0935,-0.0907,-0.0726,-0.0501,-0.0326,-0.0088,0.0004,0.0282,0.0277,0.0282,0.0333,0.0536,0.0561,0.0792,0.0878,0.047,0.0473,0.0476,0,-0.1002,-0.1044,-0.1098,-0.1126,-0.1141,-0.1165,-0.1166,-0.1119,-0.1086,-0.0913,-0.0864,-0.0628,-0.0425,-0.0041,0.0158,0.0403,0.0463,0.0555,0.0466,0.0568,0.0637,0.0647,0.0701,0.0549,0.0552,0.0554,0.0556,0,-0.1056,-0.1074,-0.1119,-0.118,-0.1206,-0.122,-0.1211,-0.1187,-0.1093,-0.0973,-0.0745,-0.0563,-0.0198,0.0115,0.0415,0.0544,0.0632,0.0611,0.0711,0.071,0.0738,0.0841,0.0418,0.0578,0.0576,0.0574,0.0573,0.0572,-0.1075,-0.1118,-0.1171,-0.1223,-0.1252,-0.1252,-0.1232,-0.1158,-0.1047,-0.082,-0.066,-0.0321,0.0034,0.047,0.062,0.0886,0.0843,0.0935,0.0963,0.0969,0.1026,0.0666,0.0882,0.0882,0.0882,0.0881,0.0881,0,-0.1089,-0.1141,-0.1203,-0.1256,-0.1281,-0.1285,-0.1237,-0.1151,-0.0967,-0.0716,-0.0453,0.0041,0.0402,0.0705,0.1052,0.1205,0.1216,0.1284,0.1277,0.1321,0.1006,0.0979,0.1234,0.1234,0.1233,0.1233,0.1233,0.1233,-0.1097,-0.1162,-0.1202,-0.1256,-0.1285,-0.1263,-0.1218,-0.1027,-0.082,-0.0386,-0.0036,0.0253,0.067,0.1135,0.1453,0.1488,0.1614,0.1616,0.1703,0.144,0.1407,0.1376,0.1358,0.1688,0.1689,0.1993,0.1996,0.1998]}],[{"header":{"parameterUnit":"m.s-1","parameterCategory":2,"la1":30.2991,"la2":30.254,"lo1":-89.0895,"lo2":-89.0444,"dy":0.0017,"dx":0.0017,"nx":28,"ny":28,"refTime":"2025-04-15T03:00:00:Z","depth":"2","parameterNumber":2,"parameterNumberName":"U-component_of_CURRENTS"},"data":[0,0,0,0,0,0,0,0,0,0,0,0,0,0,0,0,0,0,0,0,0,0,0,0,0,0,0,0,0,0,0,0,0,0,0,0,0,0,0,0,0,0,0,0,0,0,0,0,0,0,0,0,0,0,0,0,0,0,-0.2395,-0.2396,0,-0.2427,-0.2427,-0.2428,-0.2437,-0.2436,-0.2436,-0.2436,-0.2472,-0.2473,-0.2474,0,0,0,0,0,0,0,0,0,0,0,0,0,-0.2335,-0.2336,-0.2395,-0.2396,-0.2396,-0.2427,-0.2427,-0.2428,-0.2437,-0.2436,-0.2436,-0.2436,-0.2472,-0.2473,-0.2474,0,0,0,0,0,0,0,0,0,0,0,0,0,-0.2362,-0.2337,-0.2395,-0.2406,-0.2407,-0.2427,-0.2427,-0.2428,-0.2437,-0.2436,-0.2436,-0.2436,-0.2472,-0.2473,-0.2475,-0.2484,0,0,-0.2479,-0.248,0,0,0,0,0,0,0,0,-0.236,-0.2364,-0.2404,-0.2405,-0.2407,-0.243,-0.2419,-0.2447,-0.2437,-0.2423,-0.2436,-0.2436,-0.246,-0.2462,-0.2465,-0.2485,-0.2487,-0.2479,-0.248,-0.2481,-0.2481,0,0,0,0,0,0,0,-0.2358,-0.2362,-0.2406,-0.2405,-0.2406,-0.2407,-0.2411,-0.2425,-0.244,-0.2425,-0.2426,-0.2432,-0.246,-0.2464,-0.2466,-0.2487,-0.2479,-0.248,-0.2481,-0.2482,-0.2488,-0.2488,0,0,0,0,0,0,-0.2359,-0.2361,-0.2405,-0.2407,-0.2385,-0.2408,-0.2412,-0.2421,-0.244,-0.2443,-0.2432,-0.2433,-0.2461,-0.2465,-0.2468,-0.2476,-0.2481,-0.2482,-0.2483,-0.2489,-0.2488,-0.2487,0,0,0,0,0,0,-0.2358,-0.2363,-0.2404,-0.2386,-0.2392,-0.241,-0.2419,-0.2421,-0.243,-0.2446,-0.2449,-0.2439,-0.2462,-0.2466,-0.2476,-0.2478,-0.2483,-0.2484,-0.249,-0.2489,-0.2488,-0.2496,0,0,0,0,0,0,-0.2356,-0.2362,-0.2367,-0.2386,-0.2393,-0.2417,-0.2419,-0.2422,-0.2435,-0.2436,-0.2453,-0.2456,-0.2462,-0.2474,-0.2477,-0.248,-0.2485,-0.2491,-0.2489,-0.2488,-0.2496,-0.2495,-0.2494,0,0,0,0,0,-0.2353,-0.2361,-0.2367,-0.2372,-0.2399,-0.2418,-0.2421,-0.2432,-0.2435,-0.244,-0.2446,-0.2456,-0.2468,-0.2475,-0.2479,-0.2482,-0.2491,-0.249,-0.2488,-0.2497,-0.2495,-0.2494,0,0,0,0,0,0,-0.234,-0.2363,-0.237,-0.2385,-0.2401,-0.242,-0.2426,-0.2435,-0.2444,-0.2445,-0.2456,-0.2459,-0.2465,-0.2469,-0.2477,-0.2476,-0.2478,-0.2477,-0.2483,-0.2481,-0.248,-0.2483,-0.2486,0,0,0,0,0,-0.2339,-0.2347,-0.2372,-0.2383,-0.2392,-0.2409,-0.2418,-0.2428,-0.244,-0.2444,-0.2455,-0.2459,-0.2461,-0.2469,-0.2471,-0.248,-0.2469,-0.248,-0.2478,-0.2478,-0.248,-0.2465,-0.2463,-0.2482,-0.2482,-0.2482,0,0,-0.2337,-0.235,-0.2355,-0.238,-0.2392,-0.2409,-0.2414,-0.243,-0.2442,-0.2447,-0.246,-0.2458,-0.2461,-0.2464,-0.2467,-0.2471,-0.2462,-0.2476,-0.2475,-0.2479,-0.2463,-0.2462,-0.246,-0.2481,-0.2481,-0.2482,0,0,-0.2335,-0.2348,-0.2355,-0.2371,-0.2394,-0.2407,-0.2414,-0.2435,-0.2441,-0.2456,-0.2453,-0.245,-0.2466,-0.246,-0.2461,-0.2454,-0.2454,-0.2455,-0.2461,-0.2445,-0.2444,-0.2443,-0.2411,-0.2407,-0.2458,-0.2458,-0.2458,0,-0.2331,-0.2346,-0.236,-0.2376,-0.2389,-0.2408,-0.2424,-0.2435,-0.2455,-0.246,-0.246,-0.2461,-0.2461,-0.2461,-0.2454,-0.2454,-0.2442,-0.247,-0.2445,-0.2444,-0.2443,-0.241,-0.2405,-0.2458,-0.2458,-0.2458,-0.2458,0,-0.2336,-0.2352,-0.2358,-0.2383,-0.24,-0.2414,-0.2438,-0.245,-0.246,-0.2469,-0.2471,-0.2463,-0.2465,-0.2458,-0.2459,-0.2448,-0.2439,-0.2445,-0.2453,-0.2441,-0.2407,-0.2402,-0.2459,-0.2459,-0.2459,-0.2459,0,0,-0.2312,-0.2354,-0.2355,-0.237,-0.2405,-0.2418,-0.2441,-0.2462,-0.2475,-0.2481,-0.249,-0.2478,-0.2474,-0.2472,-0.2465,-0.245,-0.242,-0.2447,-0.2446,-0.2423,-0.2377,-0.2268,-0.2252,-0.2429,-0.2428,-0.2428,-0.2351,0,-0.2309,-0.2336,-0.236,-0.2385,-0.2401,-0.243,-0.245,-0.2472,-0.2486,-0.2499,-0.2489,-0.2491,-0.248,-0.2478,-0.2463,-0.2438,-0.2411,-0.244,-0.2385,-0.2383,-0.2294,-0.2243,-0.2093,-0.2003,-0.2347,-0.2346,-0.2345,0,-0.2298,-0.232,-0.2344,-0.2388,-0.2397,-0.2416,-0.2449,-0.2471,-0.2496,-0.2507,-0.251,-0.251,-0.2492,-0.2483,-0.243,-0.2453,-0.2413,-0.2386,-0.2382,-0.2277,-0.2265,-0.2072,-0.1981,-0.2337,-0.2338,-0.2338,-0.2339,0,-0.2258,-0.2304,-0.2321,-0.2336,-0.239,-0.2405,-0.2432,-0.2466,-0.2481,-0.2509,-0.2516,-0.251,-0.2494,-0.2461,-0.2402,-0.2422,-0.2334,-0.2354,-0.2212,-0.2204,-0.206,-0.2039,-0.2302,-0.2302,-0.2303,-0.2303,-0.2303,0,-0.2235,-0.2246,-0.2304,-0.2313,-0.2332,-0.2383,-0.2401,-0.2432,-0.2471,-0.2472,-0.2511,-0.2496,-0.2489,-0.2442,-0.24,-0.2273,-0.2326,-0.2192,-0.217,-0.2055,-0.2035,-0.2322,-0.2326,-0.23,-0.2301,-0.2301,-0.2302,0,-0.2174,-0.2217,-0.2236,-0.2295,-0.231,-0.232,-0.2375,-0.2384,-0.2439,-0.2443,-0.245,-0.2475,-0.2406,-0.2372,-0.23,-0.2241,-0.2154,-0.2095,-0.1948,-0.1908,-0.2038,-0.2043,-0.1933,-0.1929,-0.1925,-0.1921,-0.1919,0,-0.214,-0.2145,-0.22,-0.2204,-0.2226,-0.2256,-0.2268,-0.2345,-0.2357,-0.2406,-0.2393,-0.2362,-0.2281,-0.2144,-0.204,-0.1917,-0.202,-0.1723,-0.1724,-0.2007,-0.1998,-0.2009,-0.2018,-0.1536,-0.1531,-0.1526,-0.1522,0,-0.2063,-0.2085,-0.2097,-0.2113,-0.2127,-0.2143,-0.2174,-0.2182,-0.2255,-0.2251,-0.2217,-0.2161,-0.2043,-0.1835,-0.1699,-0.1626,-0.1735,-0.1622,-0.1944,-0.1653,-0.1626,-0.162,-0.1643,-0.1481,-0.1485,-0.1488,-0.149,-0.1492,-0.1986,-0.1975,-0.1991,-0.1989,-0.201,-0.2,-0.1955,-0.1988,-0.1967,-0.1907,-0.1972,-0.1814,-0.1782,-0.146,-0.1361,-0.1292,-0.1419,-0.1368,-0.1386,-0.1407,-0.1374,-0.1342,-0.1137,-0.1139,-0.1141,-0.1142,-0.1144,0,-0.1871,-0.1865,-0.1862,-0.1849,-0.181,-0.187,-0.1855,-0.1765,-0.1664,-0.1642,-0.1556,-0.1331,-0.1177,-0.1156,-0.0969,-0.0927,-0.0956,-0.0903,-0.0952,-0.0991,-0.1027,-0.0979,-0.0635,-0.0633,-0.0632,-0.0631,0,0,-0.1809,-0.1755,-0.1749,-0.164,-0.1629,-0.1512,-0.1464,-0.1347,-0.128,-0.1116,-0.1023,-0.1066,-0.109,-0.0852,-0.0805,-0.0685,-0.0835,-0.0647,-0.1053,-0.1148,-0.1183,-0.1287,-0.1255,0,0,0,0,0]},{"header":{"parameterUnit":"m.s-1","parameterCategory":2,"la1":30.2991,"la2":30.254,"lo1":-89.0895,"lo2":-89.0444,"dy":0.0017,"dx":0.0017,"nx":28,"ny":28,"refTime":"2025-04-15T03:00:00:Z","depth":"2","parameterNumber":3,"parameterNumberName":"V-component_of_CURRENTS"},"data":[0,0,0,0,0,0,0,0,0,0,0,0,0,0,0,0,0,0,0,0,0,0,0,0,0,0,0,0,0,0,0,0,0,0,0,0,0,0,0,0,0,0,0,0,0,0,0,0,0,0,0,0,0,0,0,0,0,0,-0.0474,-0.0473,0,-0.0417,-0.0416,-0.0415,-0.0368,-0.0368,-0.0367,-0.0367,-0.0252,-0.025,-0.0247,0,0,0,0,0,0,0,0,0,0,0,0,0,-0.0489,-0.0489,-0.0474,-0.0473,-0.0473,-0.0417,-0.0416,-0.0415,-0.0368,-0.0368,-0.0367,-0.0367,-0.0253,-0.025,-0.0247,0,0,0,0,0,0,0,0,0,0,0,0,0,-0.0461,-0.0489,-0.0474,-0.0443,-0.044,-0.0417,-0.0416,-0.0415,-0.0368,-0.0368,-0.0367,-0.0366,-0.0254,-0.025,-0.0246,-0.0234,0,0,-0.0234,-0.0232,0,0,0,0,0,0,0,0,-0.0463,-0.046,-0.0448,-0.0445,-0.0442,-0.04,-0.0379,-0.0352,-0.0368,-0.0394,-0.0367,-0.0366,-0.0298,-0.029,-0.028,-0.0228,-0.0223,-0.0234,-0.0231,-0.023,-0.0229,0,0,0,0,0,0,0,-0.0465,-0.0462,-0.045,-0.0448,-0.0444,-0.0414,-0.041,-0.0374,-0.0348,-0.0392,-0.0389,-0.0384,-0.0295,-0.0284,-0.0277,-0.0222,-0.0234,-0.023,-0.0228,-0.0226,-0.0145,-0.0145,0,0,0,0,0,0,-0.0478,-0.0465,-0.0452,-0.0449,-0.0452,-0.0415,-0.041,-0.0413,-0.035,-0.034,-0.0385,-0.0382,-0.0291,-0.0281,-0.0272,-0.025,-0.023,-0.0226,-0.0224,-0.0144,-0.0145,-0.0145,0,0,0,0,0,0,-0.0478,-0.0477,-0.0454,-0.0455,-0.0451,-0.0416,-0.0419,-0.0412,-0.0401,-0.0345,-0.0334,-0.0381,-0.029,-0.0278,-0.0247,-0.0245,-0.0224,-0.022,-0.0144,-0.0145,-0.0145,-0.0207,0,0,0,0,0,0,-0.0479,-0.0478,-0.0485,-0.0457,-0.0451,-0.0447,-0.042,-0.0412,-0.04,-0.0396,-0.0338,-0.0327,-0.0289,-0.0253,-0.0243,-0.0239,-0.0217,-0.0144,-0.0144,-0.0145,-0.0205,-0.021,-0.0214,0,0,0,0,0,-0.048,-0.0494,-0.0485,-0.0484,-0.0462,-0.0448,-0.0442,-0.0414,-0.04,-0.04,-0.0363,-0.0328,-0.0248,-0.025,-0.0238,-0.0233,-0.0144,-0.0144,-0.0145,-0.0203,-0.0209,-0.0214,0,0,0,0,0,0,-0.0502,-0.0489,-0.048,-0.0489,-0.0472,-0.044,-0.0438,-0.042,-0.0391,-0.0386,-0.0333,-0.0319,-0.0291,-0.0256,-0.026,-0.0212,-0.0189,-0.0188,-0.0238,-0.0243,-0.0247,-0.0254,-0.0214,0,0,0,0,0,-0.0512,-0.0519,-0.0499,-0.0505,-0.05,-0.0471,-0.0461,-0.0444,-0.0416,-0.0403,-0.0363,-0.032,-0.0285,-0.026,-0.0225,-0.0199,-0.0155,-0.0187,-0.0192,-0.0196,-0.0193,-0.0136,-0.0135,-0.0147,-0.0147,-0.0147,0,0,-0.0521,-0.0516,-0.0519,-0.051,-0.0495,-0.0494,-0.0463,-0.0456,-0.045,-0.0394,-0.0373,-0.0336,-0.0283,-0.0255,-0.0239,-0.0224,-0.017,-0.0197,-0.0201,-0.0195,-0.0136,-0.0135,-0.0134,-0.0147,-0.0147,-0.0147,0,0,-0.0548,-0.0541,-0.0556,-0.0548,-0.0533,-0.0515,-0.0516,-0.0488,-0.047,-0.045,-0.0408,-0.0371,-0.032,-0.0278,-0.0251,-0.0257,-0.02,-0.0248,-0.0269,-0.0214,-0.0212,-0.021,-0.0156,-0.0149,-0.0245,-0.0246,-0.0246,0,-0.056,-0.0577,-0.0557,-0.0568,-0.0565,-0.0529,-0.054,-0.0517,-0.0482,-0.0463,-0.0452,-0.037,-0.0328,-0.0282,-0.0286,-0.0265,-0.0228,-0.0254,-0.0219,-0.0216,-0.0213,-0.0158,-0.0149,-0.0249,-0.0248,-0.0248,-0.0248,0,-0.0596,-0.0608,-0.0615,-0.0618,-0.061,-0.0615,-0.0585,-0.057,-0.0545,-0.0513,-0.0469,-0.0413,-0.0361,-0.0344,-0.0316,-0.0274,-0.0253,-0.0237,-0.0207,-0.0216,-0.0157,-0.0147,-0.0253,-0.0252,-0.0251,-0.025,0,0,-0.0627,-0.064,-0.0643,-0.0654,-0.0639,-0.0638,-0.0626,-0.06,-0.0585,-0.0542,-0.0514,-0.0453,-0.0416,-0.0383,-0.0338,-0.029,-0.0238,-0.026,-0.0256,-0.021,-0.0116,-0.0093,-0.0079,-0.0219,-0.0217,-0.0216,-0.0086,0,-0.0661,-0.0701,-0.069,-0.0716,-0.0733,-0.0697,-0.0688,-0.0655,-0.0616,-0.0578,-0.0507,-0.0467,-0.0432,-0.0409,-0.0355,-0.0266,-0.0213,-0.0275,-0.0112,-0.0107,-0.0088,-0.0067,-0.0091,0.0024,-0.0075,-0.0074,-0.0072,0,-0.07,-0.0723,-0.0763,-0.0771,-0.0773,-0.0778,-0.0752,-0.0738,-0.0669,-0.0635,-0.0575,-0.0518,-0.0436,-0.0413,-0.0258,-0.0301,-0.0217,-0.0147,-0.014,-0.0088,-0.0064,0.0018,0.0047,-0.0054,-0.0056,-0.0057,-0.0058,0,-0.0743,-0.0771,-0.0807,-0.0812,-0.0813,-0.0816,-0.0808,-0.0757,-0.0739,-0.067,-0.0641,-0.0539,-0.0478,-0.0368,-0.0224,-0.0241,-0.0049,-0.005,0.0053,0.0056,0.0085,0.0088,0.0058,0.0058,0.0057,0.0057,0.0057,0,-0.0789,-0.0816,-0.0834,-0.0856,-0.0888,-0.0866,-0.0874,-0.0846,-0.0794,-0.0764,-0.0678,-0.0621,-0.0464,-0.0337,-0.0222,-0.0043,-0.0041,0.006,0.0095,0.0062,0.0061,0.003,0.0025,0.0062,0.0061,0.006,0.0059,0,-0.0835,-0.0847,-0.0891,-0.0908,-0.0915,-0.0939,-0.0932,-0.0928,-0.0872,-0.0828,-0.0808,-0.0664,-0.0492,-0.0328,-0.0123,-0.003,0.0127,0.0187,0.0137,0.0163,0.0192,0.0182,0.0311,0.0313,0.0315,0.0316,0.0318,0,-0.0862,-0.0893,-0.0939,-0.0969,-0.0982,-0.1007,-0.1018,-0.0978,-0.0962,-0.0846,-0.0822,-0.065,-0.0514,-0.0206,-0.001,0.0206,0.02,0.0301,0.0264,0.0199,0.022,0.0207,0.0196,0.0281,0.0282,0.0283,0.0283,0,-0.091,-0.0928,-0.0965,-0.1032,-0.1064,-0.1091,-0.1097,-0.1093,-0.1023,-0.0956,-0.0827,-0.0709,-0.0413,-0.0168,0.0106,0.0223,0.026,0.0321,0.0293,0.021,0.0179,0.0196,0.0184,0.0289,0.0289,0.0288,0.0288,0.0288,-0.0937,-0.0979,-0.1031,-0.1089,-0.1129,-0.1156,-0.1159,-0.1132,-0.1083,-0.095,-0.0839,-0.0611,-0.0406,0.0007,0.0182,0.0354,0.0339,0.0377,0.0372,0.0367,0.0329,0.0302,0.0429,0.0429,0.0429,0.0429,0.0429,0,-0.0965,-0.1014,-0.1079,-0.1142,-0.1185,-0.1194,-0.1192,-0.1152,-0.1074,-0.0922,-0.077,-0.0478,-0.0215,0.0019,0.0288,0.0421,0.04,0.0448,0.0387,0.038,0.0375,0.0334,0.0437,0.0438,0.0438,0.0439,0,0,-0.0982,-0.105,-0.1088,-0.1167,-0.1207,-0.1226,-0.1215,-0.1126,-0.1001,-0.0818,-0.0628,-0.0441,-0.0171,0.0018,0.018,0.0325,0.0318,0.034,0.0318,0.0217,0.021,0.0316,0.0245,0,0,0,0,0]}],[{"header":{"parameterUnit":"m.s-1","parameterCategory":2,"la1":30.2991,"la2":30.254,"lo1":-89.0895,"lo2":-89.0444,"dy":0.0017,"dx":0.0017,"nx":28,"ny":28,"refTime":"2025-04-15T03:00:00:Z","depth":"4","parameterNumber":2,"parameterNumberName":"U-component_of_CURRENTS"},"data":[0,0,0,0,0,0,0,0,0,0,0,0,0,0,0,0,0,0,0,0,0,0,0,0,0,0,0,0,0,0,0,0,0,0,0,0,0,0,0,0,0,0,0,0,0,0,0,0,0,0,0,0,0,0,0,0,0,0,-0.167,-0.1671,0,-0.1732,-0.1732,-0.1733,-0.1789,-0.179,-0.1791,-0.1791,-0.1889,-0.1891,-0.1893,0,0,0,0,0,0,0,0,0,0,0,0,0,-0.1599,-0.16,-0.167,-0.1671,-0.1672,-0.1732,-0.1732,-0.1733,-0.1789,-0.179,-0.1791,-0.1792,-0.1889,-0.1891,-0.1893,0,0,0,0,0,0,0,0,0,0,0,0,0,-0.1641,-0.16,-0.167,-0.1708,-0.1712,-0.1731,-0.1732,-0.1733,-0.1789,-0.179,-0.1791,-0.1792,-0.1888,-0.1891,-0.1893,-0.1887,0,0,-0.1902,-0.1903,0,0,0,0,0,0,0,0,-0.1638,-0.1643,-0.1702,-0.1705,-0.171,-0.1755,-0.1743,-0.1787,-0.1788,-0.1758,-0.1791,-0.1793,-0.1848,-0.1854,-0.1861,-0.1892,-0.1896,-0.1902,-0.1904,-0.1905,-0.1906,0,0,0,0,0,0,0,-0.1635,-0.1641,-0.1693,-0.1702,-0.1708,-0.1721,-0.1728,-0.1751,-0.1795,-0.1761,-0.1766,-0.1774,-0.185,-0.1858,-0.1863,-0.1897,-0.1902,-0.1905,-0.1906,-0.1908,-0.1985,-0.1985,0,0,0,0,0,0,-0.1629,-0.1638,-0.1691,-0.1695,-0.1678,-0.1722,-0.1729,-0.1738,-0.1794,-0.1804,-0.1773,-0.1776,-0.1852,-0.186,-0.1867,-0.1928,-0.1905,-0.1908,-0.1909,-0.1984,-0.1985,-0.1985,0,0,0,0,0,0,-0.1627,-0.1633,-0.1689,-0.1669,-0.1677,-0.1722,-0.1731,-0.1739,-0.1779,-0.1803,-0.1814,-0.1808,-0.1854,-0.1863,-0.191,-0.193,-0.1909,-0.1912,-0.1984,-0.1984,-0.1985,-0.2008,0,0,0,0,0,0,-0.1625,-0.1632,-0.165,-0.1669,-0.1678,-0.1719,-0.173,-0.1739,-0.178,-0.1787,-0.1836,-0.1845,-0.1855,-0.1906,-0.1913,-0.1933,-0.1914,-0.1983,-0.1984,-0.1985,-0.2006,-0.2009,-0.2011,0,0,0,0,0,-0.1622,-0.1637,-0.1651,-0.1658,-0.1697,-0.172,-0.1727,-0.176,-0.1781,-0.1801,-0.1834,-0.1845,-0.1915,-0.1909,-0.1917,-0.1938,-0.1983,-0.1984,-0.1985,-0.2005,-0.2008,-0.2011,0,0,0,0,0,0,-0.1619,-0.1645,-0.166,-0.1684,-0.171,-0.173,-0.1755,-0.1776,-0.1816,-0.1833,-0.1855,-0.1866,-0.1911,-0.192,-0.1912,-0.196,-0.1949,-0.1951,-0.1961,-0.1964,-0.1967,-0.1961,-0.1916,0,0,0,0,0,-0.1624,-0.1643,-0.1668,-0.1691,-0.1705,-0.1736,-0.1756,-0.1779,-0.1809,-0.183,-0.1863,-0.1893,-0.1913,-0.1938,-0.1957,-0.199,-0.1975,-0.2006,-0.2008,-0.201,-0.2009,-0.1999,-0.2001,-0.1988,-0.1988,-0.1988,0,0,-0.1631,-0.1647,-0.1661,-0.1692,-0.1716,-0.1741,-0.1752,-0.1789,-0.1817,-0.1833,-0.1891,-0.1907,-0.1923,-0.1956,-0.1977,-0.1973,-0.2004,-0.2011,-0.2013,-0.2011,-0.2,-0.2002,-0.2003,-0.1988,-0.1988,-0.1988,0,0,-0.1642,-0.1668,-0.1686,-0.1709,-0.1748,-0.1764,-0.1782,-0.182,-0.1847,-0.1895,-0.1906,-0.1932,-0.1982,-0.1986,-0.1994,-0.202,-0.2014,-0.2034,-0.2048,-0.2039,-0.2039,-0.204,-0.2013,-0.2011,-0.2038,-0.2038,-0.2038,0,-0.1653,-0.1675,-0.1697,-0.172,-0.1744,-0.1778,-0.1805,-0.1833,-0.1884,-0.1904,-0.1921,-0.1973,-0.1989,-0.201,-0.2018,-0.2026,-0.2016,-0.2038,-0.2041,-0.2042,-0.2042,-0.2014,-0.2011,-0.2039,-0.2039,-0.2039,-0.2038,0,-0.1668,-0.17,-0.1714,-0.1754,-0.1781,-0.1811,-0.1846,-0.1884,-0.1923,-0.1945,-0.1989,-0.2005,-0.2032,-0.2039,-0.2042,-0.2052,-0.2042,-0.2043,-0.2034,-0.2044,-0.2014,-0.2011,-0.204,-0.204,-0.204,-0.2039,0,0,-0.1652,-0.1714,-0.1722,-0.1748,-0.1802,-0.1822,-0.1871,-0.1912,-0.1945,-0.1991,-0.2025,-0.205,-0.206,-0.2068,-0.2071,-0.2065,-0.2053,-0.2061,-0.206,-0.2032,-0.2024,-0.1886,-0.1869,-0.2062,-0.2061,-0.2061,-0.1998,0,-0.1661,-0.1706,-0.1737,-0.1788,-0.1812,-0.1858,-0.1898,-0.1942,-0.1983,-0.2025,-0.204,-0.2074,-0.207,-0.2088,-0.2081,-0.2067,-0.2049,-0.2069,-0.2019,-0.2017,-0.1892,-0.1862,-0.2061,-0.1996,-0.1995,-0.1994,-0.1994,0,-0.1657,-0.169,-0.1739,-0.1802,-0.1819,-0.1859,-0.1922,-0.1962,-0.2018,-0.205,-0.2082,-0.21,-0.2106,-0.2102,-0.207,-0.2088,-0.2056,-0.2035,-0.2033,-0.1893,-0.1872,-0.1985,-0.1988,-0.1989,-0.1989,-0.199,-0.199,0,-0.1615,-0.1687,-0.1726,-0.1749,-0.1827,-0.1864,-0.191,-0.1973,-0.2005,-0.2068,-0.2092,-0.2111,-0.2116,-0.2095,-0.2052,-0.207,-0.2001,-0.2019,-0.1857,-0.1847,-0.1984,-0.1985,-0.198,-0.198,-0.1981,-0.1981,-0.1981,0,-0.1588,-0.1624,-0.1717,-0.1737,-0.1787,-0.1852,-0.1907,-0.1956,-0.2021,-0.2031,-0.21,-0.2088,-0.2116,-0.2082,-0.2051,-0.1925,-0.1994,-0.184,-0.1815,-0.1994,-0.1996,-0.1981,-0.1982,-0.1978,-0.1979,-0.1979,-0.198,0,-0.1525,-0.159,-0.164,-0.1735,-0.1767,-0.1804,-0.1899,-0.1922,-0.2003,-0.2018,-0.2036,-0.2072,-0.2013,-0.2009,-0.1957,-0.189,-0.1811,-0.1749,-0.1921,-0.1911,-0.1668,-0.1671,-0.1566,-0.156,-0.1556,-0.1552,-0.1548,0,-0.149,-0.1512,-0.1621,-0.1647,-0.1695,-0.1764,-0.1796,-0.1897,-0.191,-0.1967,-0.1945,-0.1937,-0.1931,-0.1734,-0.1765,-0.1681,-0.166,-0.162,-0.1657,-0.1635,-0.1623,-0.1634,-0.1643,-0.1541,-0.154,-0.1538,-0.1537,0,-0.1415,-0.1471,-0.1506,-0.1563,-0.1611,-0.165,-0.1704,-0.1701,-0.1779,-0.1879,-0.178,-0.1733,-0.1658,-0.1609,-0.1549,-0.1499,-0.1654,-0.1571,-0.1581,-0.1616,-0.1604,-0.1599,-0.1613,-0.1521,-0.1523,-0.1525,-0.1526,0,-0.1354,-0.1361,-0.1415,-0.1444,-0.1504,-0.1492,-0.1546,-0.1532,-0.1557,-0.1626,-0.1578,-0.1568,-0.161,-0.151,-0.1456,-0.1394,-0.1382,-0.1349,-0.1371,-0.1389,-0.1363,-0.1325,-0.1111,0,0,0,0,0,-0.128,-0.1263,-0.1284,-0.13,-0.1352,-0.1377,-0.1452,-0.1504,-0.1584,-0.146,-0.1514,-0.143,-0.134,-0.1351,-0.1246,-0.1394,-0.1403,-0.1272,-0.1381,-0.143,-0.1449,-0.1437,0,0,0,0,0,0,-0.1227,-0.1242,-0.1235,-0.1165,-0.1145,-0.1174,-0.1211,-0.1269,-0.1215,-0.1303,-0.1255,-0.1334,-0.1268,-0.1352,-0.1207,-0.1212,-0.125,-0.1291,-0.1287,-0.142,-0.1437,-0.1452,-0.1445,0,0,0,0,0]},{"header":{"parameterUnit":"m.s-1","parameterCategory":2,"la1":30.2991,"la2":30.254,"lo1":-89.0895,"lo2":-89.0444,"dy":0.0017,"dx":0.0017,"nx":28,"ny":28,"refTime":"2025-04-15T03:00:00:Z","depth":"4","parameterNumber":3,"parameterNumberName":"V-component_of_CURRENTS"},"data":[0,0,0,0,0,0,0,0,0,0,0,0,0,0,0,0,0,0,0,0,0,0,0,0,0,0,0,0,0,0,0,0,0,0,0,0,0,0,0,0,0,0,0,0,0,0,0,0,0,0,0,0,0,0,0,0,0,0,-0.0378,-0.0377,0,-0.035,-0.0349,-0.0349,-0.0323,-0.0322,-0.0322,-0.0322,-0.0247,-0.0246,-0.0244,0,0,0,0,0,0,0,0,0,0,0,0,0,-0.0366,-0.0367,-0.0378,-0.0377,-0.0377,-0.035,-0.0349,-0.0349,-0.0323,-0.0322,-0.0322,-0.0322,-0.0248,-0.0246,-0.0244,0,0,0,0,0,0,0,0,0,0,0,0,0,-0.0357,-0.0367,-0.0378,-0.0362,-0.036,-0.035,-0.0349,-0.0349,-0.0323,-0.0322,-0.0322,-0.0322,-0.0249,-0.0246,-0.0244,-0.0234,0,0,-0.0235,-0.0234,0,0,0,0,0,0,0,0,-0.0358,-0.0358,-0.0364,-0.0363,-0.0361,-0.034,-0.0318,-0.0308,-0.0323,-0.0336,-0.0322,-0.0322,-0.0275,-0.027,-0.0265,-0.0231,-0.0228,-0.0235,-0.0234,-0.0232,-0.0232,0,0,0,0,0,0,0,-0.0359,-0.0358,-0.0366,-0.0364,-0.0362,-0.0341,-0.034,-0.0316,-0.0306,-0.0335,-0.0333,-0.0332,-0.0274,-0.0268,-0.0263,-0.0226,-0.0235,-0.0233,-0.0231,-0.023,-0.0176,-0.0176,0,0,0,0,0,0,-0.0367,-0.0359,-0.0366,-0.0365,-0.036,-0.0342,-0.0341,-0.0346,-0.0307,-0.0302,-0.0332,-0.033,-0.0272,-0.0266,-0.026,-0.024,-0.0232,-0.023,-0.0228,-0.0176,-0.0176,-0.0176,0,0,0,0,0,0,-0.0367,-0.0368,-0.0368,-0.0362,-0.036,-0.0343,-0.035,-0.0346,-0.0344,-0.0306,-0.0299,-0.0335,-0.0272,-0.0264,-0.0247,-0.0237,-0.0229,-0.0226,-0.0175,-0.0176,-0.0176,-0.0204,0,0,0,0,0,0,-0.0367,-0.0368,-0.0378,-0.0363,-0.0361,-0.0368,-0.035,-0.0346,-0.0344,-0.0342,-0.0306,-0.0298,-0.0271,-0.0251,-0.0244,-0.0234,-0.0224,-0.0175,-0.0176,-0.0176,-0.0203,-0.0206,-0.0208,0,0,0,0,0,-0.0367,-0.0381,-0.0379,-0.038,-0.0374,-0.0369,-0.0366,-0.0351,-0.0345,-0.0348,-0.0325,-0.03,-0.0247,-0.0249,-0.0241,-0.0229,-0.0175,-0.0175,-0.0176,-0.0202,-0.0205,-0.0207,0,0,0,0,0,0,-0.0381,-0.038,-0.0377,-0.039,-0.0383,-0.0365,-0.0368,-0.0358,-0.0343,-0.0342,-0.0305,-0.0296,-0.0277,-0.0254,-0.0257,-0.0216,-0.0205,-0.0204,-0.0228,-0.0231,-0.0233,-0.0226,-0.0222,0,0,0,0,0,-0.039,-0.0402,-0.0392,-0.0404,-0.0403,-0.0388,-0.0385,-0.0376,-0.036,-0.0354,-0.0328,-0.0299,-0.0271,-0.0254,-0.023,-0.0209,-0.0179,-0.0196,-0.0198,-0.02,-0.019,-0.0138,-0.0134,-0.0177,-0.0177,-0.0177,0,0,-0.0399,-0.04,-0.0407,-0.0408,-0.0402,-0.04,-0.0385,-0.0386,-0.0378,-0.0347,-0.0332,-0.0309,-0.027,-0.0246,-0.0234,-0.0225,-0.0176,-0.02,-0.0202,-0.0191,-0.0138,-0.0133,-0.0129,-0.0177,-0.0177,-0.0177,0,0,-0.0417,-0.0425,-0.0436,-0.0433,-0.0429,-0.0418,-0.0421,-0.0407,-0.0396,-0.0385,-0.0354,-0.0325,-0.0295,-0.0253,-0.023,-0.0229,-0.0194,-0.0229,-0.0225,-0.0176,-0.0171,-0.0167,-0.0142,-0.0135,-0.0224,-0.0224,-0.0224,0,-0.0427,-0.044,-0.0438,-0.0443,-0.0441,-0.0428,-0.0432,-0.0417,-0.0398,-0.0383,-0.0385,-0.0322,-0.029,-0.0238,-0.0238,-0.0229,-0.021,-0.0219,-0.0177,-0.0172,-0.0167,-0.0142,-0.0134,-0.0225,-0.0225,-0.0225,-0.0225,0,-0.0445,-0.0457,-0.0464,-0.0465,-0.0462,-0.0467,-0.0448,-0.044,-0.0429,-0.0407,-0.0371,-0.033,-0.0288,-0.0273,-0.0254,-0.0202,-0.0204,-0.0191,-0.017,-0.0164,-0.0139,-0.013,-0.0227,-0.0227,-0.0226,-0.0226,0,0,-0.0463,-0.0475,-0.0478,-0.0486,-0.0476,-0.0479,-0.0463,-0.0441,-0.0432,-0.0402,-0.0378,-0.0319,-0.0298,-0.027,-0.0237,-0.0188,-0.0142,-0.0179,-0.0176,-0.0153,-0.0053,-0.0081,-0.0074,-0.0126,-0.0124,-0.0123,-0.0056,0,-0.0477,-0.0501,-0.0494,-0.051,-0.0519,-0.05,-0.0489,-0.0465,-0.0443,-0.0419,-0.0356,-0.0331,-0.0296,-0.0286,-0.0226,-0.0167,-0.0118,-0.0163,-0.0062,-0.0059,-0.0082,-0.0063,-0.0117,-0.005,-0.0048,-0.0046,-0.0045,0,-0.0492,-0.0508,-0.0531,-0.054,-0.0542,-0.0547,-0.0532,-0.052,-0.047,-0.0452,-0.04,-0.0363,-0.0284,-0.0268,-0.0137,-0.0173,-0.0113,-0.0063,-0.0059,-0.0064,-0.0069,-0.005,-0.0028,-0.003,-0.0031,-0.0032,-0.0033,0,-0.0513,-0.0531,-0.0556,-0.0559,-0.0564,-0.0568,-0.0568,-0.0534,-0.0528,-0.0477,-0.0471,-0.0372,-0.0337,-0.0235,-0.0136,-0.0137,-0.0006,0.0008,0.0046,0.0043,0.0061,0.0056,0.0108,0.0108,0.0108,0.0108,0.0107,0,-0.0528,-0.0549,-0.0576,-0.0591,-0.0623,-0.0608,-0.0627,-0.0608,-0.058,-0.0573,-0.0498,-0.047,-0.0328,-0.0242,-0.0143,-0.0029,-0.0006,0.0054,0.0068,0.0042,0.0035,0.0066,0.006,0.011,0.0109,0.0109,0.0109,0,-0.0547,-0.0561,-0.0599,-0.0625,-0.0639,-0.0666,-0.0688,-0.0695,-0.0663,-0.0651,-0.064,-0.0538,-0.0423,-0.0289,-0.0127,-0.0051,0.0065,0.01,0.0044,0.0051,0.0083,0.0075,0.0158,0.0158,0.0158,0.0158,0.0158,0,-0.0556,-0.0579,-0.064,-0.0677,-0.0697,-0.0736,-0.0762,-0.0745,-0.0746,-0.0692,-0.0684,-0.0581,-0.05,-0.0289,-0.015,0.0036,0.0063,0.0115,0.0128,0.0088,0.0093,0.0085,0.0077,0.0157,0.0157,0.0157,0.0157,0,-0.0577,-0.0608,-0.0644,-0.0726,-0.0774,-0.0817,-0.0847,-0.0851,-0.0818,-0.0796,-0.0708,-0.0593,-0.0465,-0.0292,-0.0157,-0.0022,0.0079,0.0114,0.0116,0.0128,0.0088,0.0091,0.0083,0.0156,0.0157,0.0157,0.0157,0,-0.0597,-0.0636,-0.0697,-0.0762,-0.083,-0.0873,-0.0885,-0.087,-0.086,-0.0783,-0.0758,-0.0608,-0.0514,-0.0323,-0.0198,-0.0072,-0.0029,0.0015,0.0023,0.0025,-0.0034,-0.0106,-0.0077,0,0,0,0,0,-0.061,-0.0657,-0.0726,-0.0797,-0.0865,-0.0897,-0.0927,-0.0922,-0.0891,-0.0833,-0.0787,-0.0662,-0.0456,-0.0366,-0.024,-0.0209,-0.0022,-0.006,0.0029,0.0153,0.0154,0.0104,0,0,0,0,0,0,-0.0621,-0.0689,-0.0725,-0.0809,-0.0858,-0.0923,-0.094,-0.092,-0.0873,-0.0824,-0.0711,-0.064,-0.044,-0.0524,-0.0239,-0.0202,-0.0131,0.004,0.0043,0.0153,0.0153,0.0154,0.0103,0,0,0,0,0]}]]